Content
SEND FEEDBACK

Daily
Averages
Monthly
Summary
Canada

BEDFORD, QUEBEC


Home > North America > Canada > Quebec
Elevation: 174 feet     Latitude: 45 28N     Longitude: 073 45W

WEATHER
 
SELECT A DAY
Number of Records: 202,545;   Date Range: 1/1/95 - 11/24/14
 
SHARE

PRINT THIS DATA

[ ← Previous Day ]
WEATHER ALMANAC - MARCH 1, 2013
[ Next Day → ]
[ °C ]   °F
Weather ElementAverageHighLow
Temperature31.6 °F34 °F (1:00 pm)30.2 °F (1:45 am)
Dewpoint28.4 °F30.2 °F (6:00 am)26.6 °F (11:00 am)
Humidity88.2 %100 % (6:00 am)66 % (1:00 pm)
Barometer29.74 in29.82 in (7:00 pm)29.68 in (12:40 am)
Wind Speed8.9 mph13.8 mph (1:00 pm)
Wind Gust18.4 mph (12:40 am)
Weather ElementAverage
Visibility7.8 mi
Wind DirectionSSE (145.4 °)

Weather ElementTotal
Precipitation---
Heating Degree Days32.9 (Base 65)
Averaged from 41 records on March 1, 2013
WEATHER CONDITIONS BREAKOUT
WIND DIRECTION BREAKOUT
WEATHER BY HOUR - MARCH 1, 2013
[ °C ]   °F
Local TimeTemperatureDewpointHumidityBarometerVisibilityWind DirectionWind SpeedGust SpeedPrecipitationEventsConditions
12:40 AM32.0 °F28.4 °F87 %29.68 in15.0 miNNE (20°)10.4 mph18.4 mphSnowLight Snow
1:00 AM31.0 °F28.0 °F83 %29.68 in15.0 miNorth (10°)11.5 mphSnowLight Snow
1:00 AM32.0 °F28.4 °F87 %29.68 in15.0 miNorth (360°)12.7 mphSnowLight Snow
1:45 AM30.2 °F28.4 °F93 %29.68 in5.0 miNorth (10°)10.4 mphSnowLight Snow
2:00 AM30.2 °F28.4 °F93 %29.68 in5.0 miNorth (10°)11.5 mphSnowLight Snow
2:31 AM30.2 °F28.4 °F93 %29.68 in8.0 miNorth (10°)9.2 mphSnowLight Snow
3:00 AM30.2 °F28.4 °F93 %29.68 in10.0 miNorth (10°)9.2 mphOvercast
4:00 AM30.2 °F28.4 °F93 %29.70 in8.0 miNNE (20°)8.1 mphSnowLight Snow
4:29 AM30.2 °F28.4 °F93 %29.70 in8.0 miNNE (30°)4.6 mphSnowLight Snow
4:40 AM30.2 °F28.4 °F93 %29.70 in10.0 miNNW (330°)3.5 mphSnowLight Snow
5:00 AM30.2 °F28.4 °F93 %29.70 in15.0 miWNW (300°)3.5 mphSnowLight Snow
5:42 AM30.2 °F28.4 °F93 %29.71 in3.0 miWNW (290°)4.6 mphSnowLight Snow
6:00 AM30.2 °F30.2 °F100 %29.71 in3.0 miWNW (290°)5.8 mphSnowLight Snow
6:20 AM30.2 °F30.2 °F100 %29.71 in1.8 miWNW (290°)6.9 mphSnowLight Snow
6:29 AM30.2 °F30.2 °F100 %29.72 in1.0 miWNW (290°)5.8 mphSnowLight Snow
7:00 AM31.0 °F30.0 °F94 %29.73 in1.0 miWNW (290°)5.8 mphSnowLight Snow
7:00 AM30.2 °F30.2 °F100 %29.72 in1.5 miWest (280°)6.9 mphSnowLight Snow
7:20 AM30.2 °F30.2 °F100 %29.73 in1.0 miNW (310°)6.9 mphSnowLight Snow
7:38 AM30.2 °F30.2 °F100 %29.73 in3.0 miNW (320°)6.9 mphSnowLight Snow
8:00 AM32.0 °F30.2 °F93 %29.74 in3.0 miNNW (340°)6.9 mphSnowLight Snow
8:25 AM30.2 °F28.4 °F93 %29.74 in6.0 miNNE (20°)9.2 mphSnowLight Snow
8:48 AM32.0 °F28.4 °F87 %29.74 in10.0 miNNE (20°)10.4 mphMostly Cloudy
9:00 AM32.0 °F28.4 °F87 %29.74 in10.0 miNNE (30°)10.4 mphMostly Cloudy
10:00 AM32.0 °F28.4 °F87 %29.75 in15.0 miNNE (30°)12.7 mphMostly Cloudy
11:00 AM33.8 °F26.6 °F75 %29.75 in15.0 miNNE (30°)12.7 mphMostly Cloudy
12:00 PM33.8 °F26.6 °F75 %29.76 in15.0 miNorth (10°)10.4 mphOvercast
1:00 PM33.8 °F26.6 °F75 %29.77 in15.0 miNNE (20°)13.8 mphOvercast
1:00 PM34.0 °F27.0 °F66 %29.77 in15.0 miNNE (20°)13.8 mphPartly Cloudy
2:00 PM33.8 °F26.6 °F75 %29.77 in6.0 miNNE (20°)12.7 mphSnowLight Snow
3:00 PM33.8 °F26.6 °F75 %29.78 in7.0 miNorth (10°)13.8 mphSnowLight Snow
4:00 PM33.8 °F26.6 °F75 %29.78 in12.0 miNorth (10°)12.7 mphSnowLight Snow
4:30 PM33.8 °F26.6 °F75 %29.79 in10.0 miNorth (10°)12.7 mphOvercast
4:51 PM33.8 °F26.6 °F75 %29.79 in8.0 miNorth (10°)11.5 mphSnowLight Snow
5:00 PM33.8 °F26.6 °F75 %29.80 in8.0 miNorth (10°)11.5 mphSnowLight Snow
6:00 PM32.0 °F28.4 °F87 %29.81 in8.0 miNNE (20°)9.2 mphSnowLight Snow
7:00 PM32.0 °F28.0 °F81 %29.82 in6.0 miNorth (350°)4.6 mphSnowLight Snow
7:00 PM32.0 °F28.4 °F87 %29.82 in6.0 miNorth (350°)3.5 mphSnowLight Snow
8:00 PM32.0 °F28.4 °F87 %29.82 in5.0 miWest (270°)4.6 mphSnowLight Snow
9:00 PM30.2 °F30.2 °F100 %29.82 in3.0 miWNW (300°)6.9 mphSnowLight Snow
10:00 PM30.2 °F30.2 °F100 %29.82 in4.0 miNW (320°)9.2 mphSnowLight Snow
11:00 PM30.2 °F30.2 °F100 %29.81 in5.0 miWNW (290°)5.8 mphSnowLight Snow
Hourly data recorded from CYUL, located miles away from Bedford, Quebec







STORIES FROM OUR PARTNERS